,,,PA_Meas_PMT16A,,PR_Meas_QMR101_102,,RH_Meas_QMH101,,SR_Meas_QMS101,,TA_Meas_QMH101,,GenWind,,GenWind,
date,time,status,PA,status,PR,status,RH,status,SR,status,TA,status,DirAvg,status,SpdAvg,
2010-03-15, 00:00:04,VALID,1002,VALID,0,VALID,89.8998,VALID,0,VALID,23.875,VALID,74,VALID,0,
2010-03-15, 00:01:04,VALID,1002.01,VALID,0,VALID,89.9837,VALID,0,VALID,23.8945,VALID,74,VALID,0,
2010-03-15, 00:02:04,VALID,1002,VALID,0,VALID,89.9456,VALID,0,VALID,23.8945,VALID,74,VALID,0,
2010-03-15, 00:03:04,VALID,1002,VALID,0,VALID,89.9609,VALID,0,VALID,23.875,VALID,74,VALID,0,
2010-03-15, 00:04:04,VALID,1001.95,VALID,0,VALID,90.0448,VALID,0,VALID,23.8555,VALID,74,VALID,0,
2010-03-15, 00:05:04,VALID,1001.94,VALID,0,VALID,90.2355,VALID,0,VALID,23.836,VALID,74,VALID,0,
2010-03-15, 00:06:05,VALID,1001.94,VALID,0,VALID,90.2279,VALID,0,VALID,23.836,VALID,74,VALID,0,
2010-03-15, 00:07:05,VALID,1001.94,VALID,0,VALID,90.2813,VALID,0,VALID,23.8165,VALID,74,VALID,0,
2010-03-15, 00:08:05,VALID,1001.91,VALID,0,VALID,90.3576,VALID,0,VALID,23.8165,VALID,74,VALID,0,
2010-03-15, 00:09:05,VALID,1001.96,VALID,0,VALID,90.556,VALID,0,VALID,23.8165,VALID,74,VALID,0,
2010-03-15, 00:10:05,VALID,1001.96,VALID,0,VALID,90.6246,VALID,0,VALID,23.8165,VALID,74,VALID,0,
2010-03-15, 00:11:05,VALID,1001.92,VALID,0,VALID,90.6323,VALID,0,VALID,23.836,VALID,74,VALID,0,
2010-03-15, 00:12:05,VALID,1001.94,VALID,0,VALID,90.617,VALID,0,VALID,23.8165,VALID,74,VALID,0,
2010-03-15, 00:13:05,VALID,1001.93,VALID,0,VALID,90.6399,VALID,0,VALID,23.797,VALID,182,VALID,0.009375,
2010-03-15, 00:14:05,VALID,1001.93,VALID,0,VALID,90.556,VALID,0.112286,VALID,23.7775,VALID,182,VALID,0,
2010-03-15, 00:15:05,VALID,1001.92,VALID,0,VALID,90.5102,VALID,0,VALID,23.7793,VALID,167,VALID,0,
2010-03-15, 00:16:05,VALID,1001.88,VALID,0,VALID,90.7543,VALID,0,VALID,23.7579,VALID,97,VALID,0,
2010-03-15, 00:17:05,VALID,1001.88,VALID,0,VALID,90.4568,VALID,0,VALID,23.7384,VALID,91,VALID,0.483594,
2010-03-15, 00:18:05,VALID,1001.83,VALID,0,VALID,90.7696,VALID,0,VALID,23.7579,VALID,91,VALID,0.284375,
2010-03-15, 00:19:05,VALID,1001.79,VALID,0,VALID,90.8001,VALID,0,VALID,23.7775,VALID,132,VALID,0.427344,
2010-03-15, 00:20:05,VALID,1001.77,VALID,0,VALID,90.6017,VALID,0,VALID,23.7988,VALID,132,VALID,0.282813,
2010-03-15, 00:21:05,VALID,1001.76,VALID,0,VALID,90.5254,VALID,0,VALID,23.7988,VALID,132,VALID,0,
2010-03-15, 00:22:05,VALID,1001.75,VALID,0,VALID,90.6475,VALID,0,VALID,23.797,VALID,115,VALID,0.543359,
2010-03-15, 00:23:05,VALID,1001.75,VALID,0,VALID,90.5026,VALID,0,VALID,23.797,VALID,115,VALID,0.496094,
2010-03-15, 00:24:05,VALID,1001.71,VALID,0,VALID,90.472,VALID,0.112286,VALID,23.8165,VALID,115,VALID,0.459766,
2010-03-15, 00:25:05,VALID,1001.72,VALID,0,VALID,90.3805,VALID,0,VALID,23.8378,VALID,123,VALID,0.705469,
2010-03-15, 00:26:05,VALID,1001.71,VALID,0,VALID,90.3728,VALID,0,VALID,23.836,VALID,123,VALID,0.684375,
2010-03-15, 00:27:05,VALID,1001.71,VALID,0,VALID,90.3576,VALID,0,VALID,23.8768,VALID,124,VALID,0.621484,
2010-03-15, 00:28:05,VALID,1001.67,VALID,0,VALID,90.3042,VALID,0.112286,VALID,23.8555,VALID,125,VALID,0.0398437,
2010-03-15, 00:29:05,VALID,1001.66,VALID,0,VALID,90.2813,VALID,0,VALID,23.836,VALID,125,VALID,0,
2010-03-15, 00:30:05,VALID,1001.64,VALID,0,VALID,90.2431,VALID,0,VALID,23.8573,VALID,125,VALID,0,
2010-03-15, 00:31:05,VALID,1001.63,VALID,0,VALID,90.2279,VALID,0,VALID,23.8147,VALID,125,VALID,0,
2010-03-15, 00:32:05,VALID,1001.59,VALID,0,VALID,90.2584,VALID,0,VALID,23.8165,VALID,29,VALID,0,
2010-03-15, 00:33:05,VALID,1001.6,VALID,0,VALID,90.2966,VALID,0,VALID,23.8165,VALID,29,VALID,0,
2010-03-15, 00:34:05,VALID,1001.57,VALID,0,VALID,90.35,VALID,0,VALID,23.8165,VALID,29,VALID,0,
2010-03-15, 00:35:05,VALID,1001.53,VALID,0,VALID,90.3652,VALID,0,VALID,23.836,VALID,29,VALID,0,
2010-03-15, 00:36:05,VALID,1001.53,VALID,0,VALID,90.3881,VALID,0,VALID,23.8165,VALID,29,VALID,0,
2010-03-15, 00:37:05,VALID,1001.5,VALID,0,VALID,90.4263,VALID,0,VALID,23.8165,VALID,20,VALID,0.766797,
2010-03-15, 00:38:05,VALID,1001.5,VALID,0,VALID,90.5254,VALID,0,VALID,23.8165,VALID,20,VALID,0.644531,
2010-03-15, 00:39:05,VALID,1001.46,VALID,0,VALID,90.5483,VALID,0,VALID,23.8165,VALID,20,VALID,0.110547,
2010-03-15, 00:40:05,VALID,1001.44,VALID,0,VALID,90.5026,VALID,0,VALID,23.797,VALID,20,VALID,0,
2010-03-15, 00:41:05,VALID,1001.42,VALID,0,VALID,90.4415,VALID,0,VALID,23.8183,VALID,20,VALID,0,
2010-03-15, 00:42:05,VALID,1001.43,VALID,0,VALID,90.3728,VALID,0,VALID,23.7384,VALID,20,VALID,0,
2010-03-15, 00:43:05,VALID,1001.45,VALID,0,VALID,90.6628,VALID,0,VALID,23.7189,VALID,20,VALID,0.812891,
2010-03-15, 00:44:05,VALID,1001.44,VALID,0,VALID,90.6628,VALID,0,VALID,23.7793,VALID,20,VALID,0.908594,
2010-03-15, 00:45:05,VALID,1001.46,VALID,0,VALID,90.8688,VALID,0,VALID,23.7384,VALID,20,VALID,0.764063,
2010-03-15, 00:46:05,VALID,1001.45,VALID,0,VALID,90.8535,VALID,0,VALID,23.7384,VALID,20,VALID,0.846484,
2010-03-15, 00:47:05,VALID,1001.47,VALID,0,VALID,90.6628,VALID,0,VALID,23.7207,VALID,20,VALID,1.0582,
2010-03-15, 00:48:05,VALID,1001.42,VALID,0,VALID,90.4873,VALID,0,VALID,23.6409,VALID,20,VALID,1.02813,
2010-03-15, 00:49:05,VALID,1001.39,VALID,0,VALID,90.6857,VALID,0,VALID,23.6019,VALID,20,VALID,0.608984,
2010-03-15, 00:50:05,VALID,1001.38,VALID,0,VALID,90.9527,VALID,0,VALID,23.6214,VALID,20,VALID,0.673828,
2010-03-15, 00:51:05,VALID,1001.39,VALID,0,VALID,90.9146,VALID,0,VALID,23.6019,VALID,20,VALID,0.858984,
2010-03-15, 00:52:05,VALID,1001.39,VALID,0,VALID,90.7238,VALID,0,VALID,23.5823,VALID,19,VALID,0.621875,
2010-03-15, 00:53:05,VALID,1001.42,VALID,0,VALID,90.8993,VALID,0,VALID,23.5823,VALID,26,VALID,0.898438,
2010-03-15, 00:54:05,VALID,1001.4,VALID,0,VALID,90.8306,VALID,0,VALID,23.5646,VALID,55,VALID,1.50625,
2010-03-15, 00:55:05,VALID,1001.37,VALID,0,VALID,90.8993,VALID,0,VALID,23.5841,VALID,41,VALID,0.922656,
2010-03-15, 00:56:05,VALID,1001.35,VALID,0,VALID,90.9298,VALID,0,VALID,23.5628,VALID,37,VALID,0.817578,
2010-03-15, 00:57:05,VALID,1001.35,VALID,0,VALID,91.0748,VALID,0,VALID,23.5823,VALID,37,VALID,0.968359,
2010-03-15, 00:58:05,VALID,1001.3,VALID,0,VALID,91.174,VALID,0.112286,VALID,23.6214,VALID,47,VALID,0.722656,
2010-03-15, 00:59:05,VALID,1001.29,VALID,0,VALID,91.1968,VALID,0,VALID,23.6409,VALID,38,VALID,0.366406,
2010-03-15, 01:00:05,VALID,1001.33,VALID,0,VALID,91.235,VALID,0,VALID,23.6604,VALID,31,VALID,0.544141,
2010-03-15, 01:01:05,VALID,1001.3,VALID,0,VALID,91.441,VALID,0,VALID,23.6994,VALID,69,VALID,0.914453,
2010-03-15, 01:02:05,VALID,1001.32,VALID,0,VALID,91.3266,VALID,0,VALID,23.7384,VALID,38,VALID,1.13242,
2010-03-15, 01:03:05,VALID,1001.32,VALID,0,VALID,91.5402,VALID,0,VALID,23.7793,VALID,65,VALID,1.33477,
2010-03-15, 01:04:05,VALID,1001.34,VALID,0,VALID,91.5707,VALID,0,VALID,23.7952,VALID,56,VALID,1.48477,
2010-03-15, 01:05:05,VALID,1001.35,VALID,0,VALID,91.4334,VALID,0,VALID,23.8573,VALID,46,VALID,1.3793,
2010-03-15, 01:06:05,VALID,1001.27,VALID,0,VALID,91.2808,VALID,0,VALID,23.8573,VALID,27,VALID,0.928516,
2010-03-15, 01:07:05,VALID,1001.24,VALID,0,VALID,91.1587,VALID,0,VALID,23.836,VALID,18,VALID,1.08477,
2010-03-15, 01:08:05,VALID,1001.23,VALID,0,VALID,91.2045,VALID,0,VALID,23.836,VALID,356,VALID,0.685156,
2010-03-15, 01:09:05,VALID,1001.14,VALID,0,VALID,91.1816,VALID,0,VALID,23.8183,VALID,356,VALID,0.355859,
2010-03-15, 01:10:05,VALID,1001.09,VALID,0,VALID,91.1892,VALID,0,VALID,23.8183,VALID,356,VALID,0,
2010-03-15, 01:11:05,VALID,1001.08,VALID,0,VALID,91.174,VALID,0,VALID,23.7775,VALID,356,VALID,0.025,
2010-03-15, 01:12:05,VALID,1001.04,VALID,0,VALID,91.1282,VALID,0,VALID,23.7793,VALID,356,VALID,0,
2010-03-15, 01:13:05,VALID,1001.01,VALID,0,VALID,91.1968,VALID,0,VALID,23.7597,VALID,356,VALID,0.0382813,
2010-03-15, 01:14:05,VALID,1001.01,VALID,0,VALID,91.2655,VALID,0,VALID,23.7384,VALID,356,VALID,0,
2010-03-15, 01:15:05,VALID,1000.97,VALID,0,VALID,91.2503,VALID,0,VALID,23.7189,VALID,356,VALID,0,
2010-03-15, 01:16:05,VALID,1000.97,VALID,0,VALID,91.296,VALID,0,VALID,23.7207,VALID,356,VALID,0,
2010-03-15, 01:17:05,VALID,1000.97,VALID,0,VALID,91.3037,VALID,0,VALID,23.7189,VALID,356,VALID,0,
2010-03-15, 01:18:05,VALID,1000.94,VALID,0,VALID,91.2884,VALID,0,VALID,23.6994,VALID,356,VALID,0,
2010-03-15, 01:19:05,VALID,1000.95,VALID,0,VALID,91.3189,VALID,0,VALID,23.7207,VALID,356,VALID,0,
2010-03-15, 01:20:05,VALID,1000.94,VALID,0,VALID,91.3571,VALID,0,VALID,23.7012,VALID,356,VALID,0.147266,
2010-03-15, 01:21:05,VALID,1000.93,VALID,0,VALID,91.4028,VALID,0,VALID,23.7012,VALID,342,VALID,0.978906,
2010-03-15, 01:22:05,VALID,1000.89,VALID,0,VALID,91.502,VALID,0,VALID,23.6799,VALID,337,VALID,0.724609,
2010-03-15, 01:23:05,VALID,1000.9,VALID,0,VALID,91.5478,VALID,0,VALID,23.6817,VALID,306,VALID,0.535937,
2010-03-15, 01:24:05,VALID,1000.9,VALID,0,VALID,91.6699,VALID,0,VALID,23.6994,VALID,293,VALID,0.584375,
2010-03-15, 01:25:05,VALID,1000.9,VALID,0,VALID,91.6928,VALID,0,VALID,23.7402,VALID,293,VALID,0.599609,
2010-03-15, 01:26:05,VALID,1000.9,VALID,0,VALID,91.7004,VALID,0,VALID,23.7597,VALID,293,VALID,0.316406,
2010-03-15, 01:27:05,VALID,1000.88,VALID,0,VALID,91.7233,VALID,0,VALID,23.7597,VALID,293,VALID,0.551172,
2010-03-15, 01:28:05,VALID,1000.89,VALID,0,VALID,91.7157,VALID,0,VALID,23.7597,VALID,293,VALID,0.578516,
2010-03-15, 01:29:05,VALID,1000.86,VALID,0,VALID,91.7157,VALID,0,VALID,23.7988,VALID,280,VALID,0.559766,
2010-03-15, 01:30:05,VALID,1000.87,VALID,0,VALID,91.7309,VALID,0,VALID,23.8183,VALID,268,VALID,0.365234,
2010-03-15, 01:31:05,VALID,1000.85,VALID,0,VALID,91.6928,VALID,0,VALID,23.836,VALID,272,VALID,0.0488281,
2010-03-15, 01:32:05,VALID,1000.87,VALID,0,VALID,91.7233,VALID,0,VALID,23.8573,VALID,272,VALID,0,
2010-03-15, 01:33:05,VALID,1000.82,VALID,0,VALID,91.5478,VALID,0,VALID,23.875,VALID,14,VALID,0,
2010-03-15, 01:34:05,VALID,1000.82,VALID,0,VALID,91.4944,VALID,0,VALID,23.9159,VALID,22,VALID,0.040625,
2010-03-15, 01:35:05,VALID,1000.78,VALID,0,VALID,91.3647,VALID,0,VALID,23.9744,VALID,15,VALID,0.309375,
2010-03-15, 01:36:05,VALID,1000.76,VALID,0,VALID,91.09,VALID,0,VALID,24.0329,VALID,17,VALID,0.114844,
2010-03-15, 01:37:05,VALID,1000.74,VALID,0,VALID,90.8154,VALID,0,VALID,24.0506,VALID,30,VALID,0,
2010-03-15, 01:38:05,VALID,1000.71,VALID,0,VALID,90.5407,VALID,0,VALID,24.111,VALID,353,VALID,0.749219,
2010-03-15, 01:39:05,VALID,1000.73,VALID,0,VALID,90.3423,VALID,0,VALID,24.1482,VALID,8,VALID,0.675781,
2010-03-15, 01:40:05,VALID,1000.71,VALID,0,VALID,90.2279,VALID,0,VALID,24.1677,VALID,320,VALID,0.460938,
2010-03-15, 01:41:05,VALID,1000.67,VALID,0,VALID,90.1363,VALID,0,VALID,24.1891,VALID,315,VALID,0.0507813,
2010-03-15, 01:42:05,VALID,1000.62,VALID,0,VALID,90.0829,VALID,0,VALID,24.1872,VALID,315,VALID,0,
2010-03-15, 01:43:05,VALID,1000.59,VALID,0,VALID,90.06,VALID,0,VALID,24.2086,VALID,315,VALID,0,
2010-03-15, 01:44:05,VALID,1000.6,VALID,0,VALID,89.9837,VALID,0,VALID,24.2086,VALID,315,VALID,0,
2010-03-15, 01:45:05,VALID,1000.55,VALID,0,VALID,89.7854,VALID,0,VALID,24.1891,VALID,315,VALID,0.123047,
2010-03-15, 01:46:05,VALID,1000.55,VALID,0,VALID,89.6557,VALID,0,VALID,24.2086,VALID,315,VALID,0,
2010-03-15, 01:47:05,VALID,1000.54,VALID,0,VALID,89.4878,VALID,0,VALID,24.2476,VALID,315,VALID,0,
2010-03-15, 01:48:05,VALID,1000.55,VALID,0,VALID,89.3505,VALID,0,VALID,24.2458,VALID,315,VALID,0,
2010-03-15, 01:49:05,VALID,1000.54,VALID,0,VALID,88.9614,VALID,0,VALID,24.3062,VALID,315,VALID,0.385547,
2010-03-15, 01:50:05,VALID,1000.57,VALID,0,VALID,88.702,VALID,0,VALID,24.3452,VALID,315,VALID,0,
2010-03-15, 01:51:05,VALID,1000.53,VALID,0,VALID,88.3815,VALID,0,VALID,24.3629,VALID,315,VALID,0,
2010-03-15, 01:52:05,VALID,1000.55,VALID,0,VALID,88.206,VALID,0,VALID,24.4037,VALID,315,VALID,0,
2010-03-15, 01:53:05,VALID,1000.54,VALID,0,VALID,88.1221,VALID,0,VALID,24.4037,VALID,315,VALID,0,
2010-03-15, 01:54:05,VALID,1000.52,VALID,0,VALID,88.206,VALID,0,VALID,24.3842,VALID,315,VALID,0.078125,
2010-03-15, 01:55:05,VALID,1000.52,VALID,0,VALID,88.1755,VALID,0,VALID,24.3647,VALID,315,VALID,0.0777344,
2010-03-15, 01:56:05,VALID,1000.54,VALID,0,VALID,88.2976,VALID,0,VALID,24.3666,VALID,315,VALID,0,
2010-03-15, 01:57:05,VALID,1000.52,VALID,0,VALID,88.4578,VALID,0,VALID,24.3257,VALID,315,VALID,0.00195313,
2010-03-15, 01:58:05,VALID,1000.51,VALID,0,VALID,88.618,VALID,0,VALID,24.3062,VALID,315,VALID,0,
2010-03-15, 01:59:05,VALID,1000.53,VALID,0,VALID,88.7325,VALID,0,VALID,24.2866,VALID,315,VALID,0,
2010-03-15, 02:00:05,VALID,1000.53,VALID,0,VALID,88.7325,VALID,0,VALID,24.2653,VALID,315,VALID,0,
2010-03-15, 02:01:05,VALID,1000.49,VALID,0,VALID,88.7172,VALID,0,VALID,24.2671,VALID,315,VALID,0,
2010-03-15, 02:02:05,VALID,1000.49,VALID,0,VALID,88.6486,VALID,0,VALID,24.2671,VALID,315,VALID,0,
2010-03-15, 02:03:05,VALID,1000.48,VALID,0,VALID,88.5265,VALID,0,VALID,24.2671,VALID,315,VALID,0,
2010-03-15, 02:04:05,VALID,1000.49,VALID,0,VALID,88.4807,VALID,0,VALID,24.2671,VALID,315,VALID,0,
2010-03-15, 02:05:05,VALID,1000.42,VALID,0,VALID,88.557,VALID,0,VALID,24.2263,VALID,315,VALID,0,
2010-03-15, 02:06:05,VALID,1000.45,VALID,0,VALID,88.5799,VALID,0,VALID,24.2263,VALID,315,VALID,0,
2010-03-15, 02:07:05,VALID,1000.46,VALID,0,VALID,88.5189,VALID,0,VALID,24.2067,VALID,315,VALID,0,
2010-03-15, 02:08:05,VALID,1000.47,VALID,0,VALID,88.6409,VALID,0,VALID,24.2086,VALID,315,VALID,0,
2010-03-15, 02:09:05,VALID,1000.47,VALID,0,VALID,88.7249,VALID,0,VALID,24.2086,VALID,315,VALID,0,
2010-03-15, 02:10:05,VALID,1000.45,VALID,0,VALID,88.8011,VALID,0,VALID,24.2086,VALID,315,VALID,0,
2010-03-15, 02:11:05,VALID,1000.45,VALID,0,VALID,88.824,VALID,0,VALID,24.1677,VALID,315,VALID,0,
2010-03-15, 02:12:05,VALID,1000.47,VALID,0,VALID,88.8011,VALID,0,VALID,24.1891,VALID,315,VALID,0,
2010-03-15, 02:13:05,VALID,1000.44,VALID,0,VALID,88.824,VALID,0,VALID,24.1677,VALID,289,VALID,0.0570313,
2010-03-15, 02:14:05,VALID,1000.41,VALID,0,VALID,89.1903,VALID,0,VALID,24.2086,VALID,227,VALID,0.755469,
2010-03-15, 02:15:05,VALID,1000.42,VALID,0,VALID,89.1597,VALID,0,VALID,24.2476,VALID,218,VALID,0.692187,
2010-03-15, 02:16:05,VALID,1000.44,VALID,0,VALID,89.1216,VALID,0,VALID,24.2866,VALID,209,VALID,0.0824219,
2010-03-15, 02:17:05,VALID,1000.45,VALID,0,VALID,88.9919,VALID,0,VALID,24.2866,VALID,209,VALID,0,
2010-03-15, 02:18:05,VALID,1000.39,VALID,0,VALID,88.9232,VALID,0,VALID,24.2653,VALID,209,VALID,0,
2010-03-15, 02:19:05,VALID,1000.4,VALID,0,VALID,88.6867,VALID,0,VALID,24.2458,VALID,209,VALID,0,
2010-03-15, 02:20:05,VALID,1000.4,VALID,0,VALID,88.5951,VALID,0,VALID,24.2067,VALID,209,VALID,0,
2010-03-15, 02:21:05,VALID,1000.39,VALID,0,VALID,88.7249,VALID,0,VALID,24.2086,VALID,209,VALID,0,
2010-03-15, 02:22:05,VALID,1000.39,VALID,0,VALID,88.6714,VALID,0,VALID,24.1677,VALID,209,VALID,0,
2010-03-15, 02:23:05,VALID,1000.32,VALID,0,VALID,88.5265,VALID,0,VALID,24.1287,VALID,209,VALID,0,
2010-03-15, 02:24:05,VALID,1000.33,VALID,0,VALID,88.908,VALID,0,VALID,24.1305,VALID,191,VALID,0.255078,
2010-03-15, 02:25:05,VALID,1000.32,VALID,0,VALID,88.9537,VALID,0,VALID,24.1482,VALID,191,VALID,0,
2010-03-15, 02:26:05,VALID,1000.28,VALID,0,VALID,88.8011,VALID,0,VALID,24.1696,VALID,191,VALID,0,
2010-03-15, 02:27:05,VALID,1000.25,VALID,0,VALID,88.6867,VALID,0,VALID,24.15,VALID,191,VALID,0,
2010-03-15, 02:28:05,VALID,1000.24,VALID,0,VALID,88.6638,VALID,0,VALID,24.1287,VALID,191,VALID,0,
2010-03-15, 02:29:05,VALID,1000.24,VALID,0,VALID,88.6943,VALID,0,VALID,24.1305,VALID,191,VALID,0,
2010-03-15, 02:30:05,VALID,1000.25,VALID,0,VALID,88.8774,VALID,0,VALID,24.111,VALID,191,VALID,0,
2010-03-15, 02:31:05,VALID,1000.26,VALID,0,VALID,88.969,VALID,0,VALID,24.072,VALID,191,VALID,0,
2010-03-15, 02:32:05,VALID,1000.24,VALID,0,VALID,89.1368,VALID,0,VALID,24.072,VALID,192,VALID,0,
2010-03-15, 02:33:05,VALID,1000.2,VALID,0,VALID,89.1292,VALID,0,VALID,24.072,VALID,193,VALID,0,
2010-03-15, 02:34:05,VALID,1000.24,VALID,0,VALID,88.4807,VALID,0,VALID,24.0134,VALID,103,VALID,0,
2010-03-15, 02:35:05,VALID,1000.24,VALID,0,VALID,88.2518,VALID,0,VALID,23.8768,VALID,21,VALID,0.796484,
2010-03-15, 02:36:05,VALID,1000.22,VALID,0,VALID,87.9619,VALID,0,VALID,23.7012,VALID,13,VALID,0.7,
2010-03-15, 02:37:05,VALID,1000.21,VALID,0,VALID,88.9461,VALID,0,VALID,23.5451,VALID,13,VALID,0.408594,
2010-03-15, 02:38:05,VALID,1000.18,VALID,0,VALID,89.3886,VALID,0,VALID,23.5061,VALID,13,VALID,0.379687,
2010-03-15, 02:39:05,VALID,1000.19,VALID,0,VALID,89.8846,VALID,0,VALID,23.4866,VALID,13,VALID,0.0867188,
2010-03-15, 02:40:05,VALID,1000.2,VALID,0,VALID,89.9456,VALID,0,VALID,23.428,VALID,13,VALID,0,
2010-03-15, 02:41:05,VALID,1000.2,VALID,0,VALID,90.1592,VALID,0,VALID,23.389,VALID,13,VALID,0,
2010-03-15, 02:42:05,VALID,1000.22,VALID,0,VALID,90.3271,VALID,0,VALID,23.3695,VALID,13,VALID,0,
2010-03-15, 02:43:05,VALID,1000.21,VALID,0,VALID,90.4186,VALID,0,VALID,23.35,VALID,13,VALID,0,
2010-03-15, 02:44:05,VALID,1000.21,VALID,0,VALID,90.4034,VALID,0,VALID,23.311,VALID,13,VALID,0,
2010-03-15, 02:45:05,VALID,1000.23,VALID,0,VALID,90.5331,VALID,0,VALID,23.2915,VALID,13,VALID,0,
2010-03-15, 02:46:05,VALID,1000.22,VALID,0,VALID,90.4949,VALID,0,VALID,23.2719,VALID,13,VALID,0,
2010-03-15, 02:47:05,VALID,1000.2,VALID,0,VALID,90.7009,VALID,0,VALID,23.2524,VALID,13,VALID,0,
2010-03-15, 02:48:04,VALID,1000.21,VALID,0,VALID,90.8993,VALID,0,VALID,23.2329,VALID,13,VALID,0,
2010-03-15, 02:49:04,VALID,1000.23,VALID,0,VALID,91.1434,VALID,0,VALID,23.2524,VALID,13,VALID,0,
2010-03-15, 02:50:04,VALID,1000.24,VALID,0,VALID,91.2579,VALID,0,VALID,23.2915,VALID,13,VALID,0,
2010-03-15, 02:51:04,VALID,1000.24,VALID,0,VALID,91.3418,VALID,0,VALID,23.3305,VALID,13,VALID,0,
2010-03-15, 02:52:04,VALID,1000.21,VALID,0,VALID,91.3494,VALID,0,VALID,23.3695,VALID,13,VALID,0,
2010-03-15, 02:53:04,VALID,1000.24,VALID,0,VALID,91.3037,VALID,0,VALID,23.3695,VALID,13,VALID,0,
2010-03-15, 02:54:04,VALID,1000.25,VALID,0,VALID,91.4563,VALID,0,VALID,23.3695,VALID,205,VALID,0.382813,
2010-03-15, 02:55:04,VALID,1000.27,VALID,0,VALID,91.7614,VALID,0,VALID,23.4671,VALID,205,VALID,0.620313,
2010-03-15, 02:56:04,VALID,1000.29,VALID,0,VALID,91.7462,VALID,0,VALID,23.5238,VALID,210,VALID,0.582422,
2010-03-15, 02:57:04,VALID,1000.33,VALID,0,VALID,91.5631,VALID,0,VALID,23.6036,VALID,210,VALID,0.346875,
2010-03-15, 02:58:04,VALID,1000.34,VALID,0,VALID,91.3876,VALID,0,VALID,23.6427,VALID,210,VALID,0.0984375,
2010-03-15, 02:59:04,VALID,1000.38,VALID,0,VALID,91.1511,VALID,0,VALID,23.6427,VALID,210,VALID,0,
2010-03-15, 03:00:04,VALID,1000.35,VALID,0,VALID,90.9374,VALID,0,VALID,23.5823,VALID,210,VALID,0,
2010-03-15, 03:01:04,VALID,1000.34,VALID,0,VALID,90.6246,VALID,0,VALID,23.5646,VALID,210,VALID,0,
2010-03-15, 03:02:04,VALID,1000.32,VALID,0,VALID,90.6017,VALID,0,VALID,23.4653,VALID,210,VALID,0,
2010-03-15, 03:03:04,VALID,1000.33,VALID,0,VALID,90.5865,VALID,0,VALID,23.4067,VALID,210,VALID,0,
2010-03-15, 03:04:04,VALID,1000.34,VALID,0,VALID,91.2045,VALID,0,VALID,23.428,VALID,210,VALID,0,
2010-03-15, 03:05:04,VALID,1000.35,VALID,0,VALID,91.2274,VALID,0,VALID,23.4671,VALID,210,VALID,0,
2010-03-15, 03:06:04,VALID,1000.33,VALID,0,VALID,91.2045,VALID,0,VALID,23.4653,VALID,210,VALID,0,
2010-03-15, 03:07:04,VALID,1000.33,VALID,0,VALID,91.2579,VALID,0,VALID,23.5061,VALID,210,VALID,0,
2010-03-15, 03:08:04,VALID,1000.31,VALID,0,VALID,91.0595,VALID,0,VALID,23.5043,VALID,164,VALID,0.498828,
2010-03-15, 03:09:04,VALID,1000.28,VALID,0,VALID,90.6246,VALID,0,VALID,23.4866,VALID,162,VALID,0.883203,
2010-03-15, 03:10:04,VALID,1000.28,VALID,0,VALID,90.7543,VALID,0,VALID,23.4458,VALID,162,VALID,0.777344,
2010-03-15, 03:11:04,VALID,1000.28,VALID,0,VALID,90.6475,VALID,0,VALID,23.4458,VALID,162,VALID,0.342578,
2010-03-15, 03:12:04,VALID,1000.27,VALID,0,VALID,90.7772,VALID,0,VALID,23.4671,VALID,283,VALID,0.648047,
2010-03-15, 03:13:04,VALID,1000.25,VALID,0,VALID,90.4186,VALID,0,VALID,23.3872,VALID,293,VALID,0.465234,
2010-03-15, 03:14:04,VALID,1000.27,VALID,0,VALID,90.7467,VALID,0,VALID,23.3677,VALID,324,VALID,0.528906,
2010-03-15, 03:15:04,VALID,1000.25,VALID,0,VALID,90.8993,VALID,0,VALID,23.3695,VALID,327,VALID,0.503125,
2010-03-15, 03:16:04,VALID,1000.26,VALID,0,VALID,91.0061,VALID,0,VALID,23.3677,VALID,326,VALID,0.116406,
2010-03-15, 03:17:04,VALID,1000.26,VALID,0,VALID,91.0366,VALID,0,VALID,23.3695,VALID,326,VALID,0,
2010-03-15, 03:18:04,VALID,1000.26,VALID,0,VALID,90.9527,VALID,0,VALID,23.3305,VALID,326,VALID,0,
2010-03-15, 03:19:04,VALID,1000.22,VALID,0,VALID,91.1511,VALID,0,VALID,23.3092,VALID,210,VALID,0.366016,
2010-03-15, 03:20:04,VALID,1000.25,VALID,0,VALID,91.38,VALID,0,VALID,23.3677,VALID,205,VALID,0.653906,
2010-03-15, 03:21:04,VALID,1000.25,VALID,0,VALID,91.4639,VALID,0,VALID,23.4475,VALID,207,VALID,0.694141,
2010-03-15, 03:22:04,VALID,1000.24,VALID,0,VALID,91.3571,VALID,0,VALID,23.5061,VALID,221,VALID,0.630859,
2010-03-15, 03:23:04,VALID,1000.24,VALID,0,VALID,91.2884,VALID,0,VALID,23.5043,VALID,227,VALID,0.616406,
2010-03-15, 03:24:04,VALID,1000.22,VALID,0,VALID,91.1892,VALID,0,VALID,23.5646,VALID,227,VALID,0.430078,
2010-03-15, 03:25:04,VALID,1000.23,VALID,0,VALID,91.1511,VALID,0,VALID,23.6232,VALID,226,VALID,0.814062,
2010-03-15, 03:26:04,VALID,1000.2,VALID,0,VALID,91.0061,VALID,0,VALID,23.6427,VALID,215,VALID,0.522656,
2010-03-15, 03:27:04,VALID,1000.17,VALID,0,VALID,90.8917,VALID,0,VALID,23.6817,VALID,201,VALID,1.03984,
2010-03-15, 03:28:04,VALID,1000.19,VALID,0,VALID,90.7314,VALID,0,VALID,23.7207,VALID,209,VALID,0.851172,
2010-03-15, 03:29:04,VALID,1000.2,VALID,0,VALID,90.6246,VALID,0,VALID,23.7579,VALID,207,VALID,0.732031,
2010-03-15, 03:30:04,VALID,1000.19,VALID,0,VALID,90.3805,VALID,0,VALID,23.7988,VALID,177,VALID,0.778906,
2010-03-15, 03:31:04,VALID,1000.16,VALID,0,VALID,90.35,VALID,0,VALID,23.7775,VALID,180,VALID,1.12734,
2010-03-15, 03:32:04,VALID,1000.18,VALID,0,VALID,90.205,VALID,0,VALID,23.7988,VALID,181,VALID,0.831641,
2010-03-15, 03:33:04,VALID,1000.21,VALID,0,VALID,89.854,VALID,0,VALID,23.7793,VALID,170,VALID,0.750391,
2010-03-15, 03:34:04,VALID,1000.19,VALID,0,VALID,89.3428,VALID,0,VALID,23.6799,VALID,160,VALID,0.975,
2010-03-15, 03:35:04,VALID,1000.19,VALID,0,VALID,89.2208,VALID,0,VALID,23.6036,VALID,158,VALID,1.08047,
2010-03-15, 03:36:04,VALID,1000.22,VALID,0,VALID,89.4268,VALID,0,VALID,23.5646,VALID,158,VALID,0.837891,
2010-03-15, 03:37:04,VALID,1000.22,VALID,0,VALID,89.6328,VALID,0,VALID,23.5061,VALID,152,VALID,0.914063,
2010-03-15, 03:38:04,VALID,1000.2,VALID,0,VALID,90.0219,VALID,0,VALID,23.4866,VALID,153,VALID,0.855859,
2010-03-15, 03:39:04,VALID,1000.2,VALID,0,VALID,90.1592,VALID,0,VALID,23.4653,VALID,159,VALID,0.716016,
2010-03-15, 03:40:04,VALID,1000.21,VALID,0,VALID,90.2355,VALID,0,VALID,23.4653,VALID,158,VALID,0.828125,
2010-03-15, 03:41:04,VALID,1000.21,VALID,0,VALID,90.1363,VALID,0,VALID,23.4671,VALID,155,VALID,0.827734,
2010-03-15, 03:42:04,VALID,1000.19,VALID,0,VALID,90.1211,VALID,0,VALID,23.4671,VALID,152,VALID,0.792188,
2010-03-15, 03:43:04,VALID,1000.2,VALID,0,VALID,89.9761,VALID,0,VALID,23.4067,VALID,143,VALID,0.766406,
2010-03-15, 03:44:04,VALID,1000.19,VALID,0,VALID,90.0066,VALID,0,VALID,23.4085,VALID,143,VALID,0.724609,
2010-03-15, 03:45:04,VALID,1000.21,VALID,0,VALID,90.0829,VALID,0,VALID,23.4085,VALID,143,VALID,0.649219,
2010-03-15, 03:46:04,VALID,1000.23,VALID,0,VALID,89.938,VALID,0,VALID,23.3287,VALID,143,VALID,0.651953,
2010-03-15, 03:47:04,VALID,1000.26,VALID,0,VALID,90.1745,VALID,0,VALID,23.3482,VALID,143,VALID,0.851563,
2010-03-15, 03:48:04,VALID,1000.24,VALID,0,VALID,90.4415,VALID,0,VALID,23.3482,VALID,143,VALID,0.845312,
2010-03-15, 03:49:04,VALID,1000.26,VALID,0,VALID,90.411,VALID,0,VALID,23.3695,VALID,148,VALID,0.631641,
2010-03-15, 03:50:04,VALID,1000.26,VALID,0,VALID,90.35,VALID,0,VALID,23.3287,VALID,148,VALID,0.513281,
2010-03-15, 03:51:04,VALID,1000.27,VALID,0,VALID,90.4034,VALID,0,VALID,23.3287,VALID,148,VALID,0.307031,
2010-03-15, 03:52:04,VALID,1000.27,VALID,0,VALID,90.4491,VALID,0,VALID,23.3287,VALID,148,VALID,0.453906,